Location: Churchill Northern Studies Centre
(58.7378°N, 93.8201°W)
Time: 01:08:53
(UTC-05:00)

Gurwin Techsat 1B - Visible Passes

Search period start: 23 July 2018 00:00
Search period end: 02 August 2018 00:00
Orbit: 813 x 813 km, 98.7° (Epoch: 22 July)

Date Brightness Start Highest point End Pass type
(mag) Time Alt. Az. Time Alt. Az. Time Alt. Az.
23 Jul 9.8 02:36:59 10° NNE 02:41:55 36° E 02:46:49 10° SSE visible
24 Jul 10.2 02:14:22 10° NNE 02:18:51 26° E 02:23:17 10° SSE visible
25 Jul 10.7 01:51:56 10° NE 01:55:42 19° E 01:59:25 10° SE visible
25 Jul 8.8 03:31:08 10° NNE 03:36:30 80° ESE 03:41:51 10° SSW visible
26 Jul 10.9 01:29:54 10° NE 01:32:28 13° E 01:35:00 10° ESE visible
26 Jul 9.1 03:08:19 10° NNE 03:13:36 58° ESE 03:18:51 10° S visible
27 Jul 9.6 02:45:34 10° NNE 02:50:37 41° E 02:55:39 10° SSE visible
28 Jul 10.1 02:22:54 10° NNE 02:27:34 30° E 02:32:13 10° SSE visible
29 Jul 10.5 02:00:23 10° NE 02:04:27 21° E 02:08:29 10° SE visible
29 Jul 8.7 03:39:46 10° NNE 03:45:08 89° E 03:50:29 10° SSW visible
30 Jul 10.9 01:38:10 10° NE 01:41:15 15° E 01:44:19 10° ESE visible
30 Jul 8.9 03:16:55 10° NNE 03:22:16 66° ESE 03:27:34 10° S visible
31 Jul 11.1 01:16:56 10° ENE 01:17:58 10° ENE 01:18:59 10° E visible
31 Jul 9.4 02:54:09 10° NNE 02:59:19 47° E 03:04:26 10° S visible
01 Aug 9.9 02:31:27 10° NNE 02:36:17 34° E 02:41:06 10° SSE visible
